Santuari del Far - Susqueda





Hora UTC 14:30
Temperatura 18.6 ºC
Humitat 66.0 %
Pressió 1015.9 hPa
Pluja 0.2 mm
Velocitat vent 4.8 km/h
Direcció vent N

Dades diàries 2021-09-19



Hora UTC (hivern +1h; estiu +2h)
Temperatura (ºC) Humitat (%) Pressió (hPa) Velocitat vent (km/h) Precipitació (mm)
Hora UTC Aire Humitat Pressió Vel. Dir. Vel. Max Dir. Intent. màx 5 min.
00:05 13.8 97.0 1012.6 0.0 N 0.0 0.0
00:10 13.8 97.0 1012.6 1.6 N 8.0 0.0
00:15 13.7 96.0 1012.7 1.6 N 8.0 0.0
00:20 13.7 96.0 1012.8 0.0 N 4.8 0.0
00:25 13.7 96.0 1012.8 1.6 N 4.8 0.0
00:30 13.6 97.0 1012.8 3.2 N 6.4 0.0
00:35 13.5 97.0 1013.0 6.4 N 6.4 0.0
00:40 13.6 97.0 1012.9 1.6 N 8.0 0.0
00:45 13.6 97.0 1012.9 3.2 N 4.8 0.0
00:50 13.6 97.0 1012.9 4.8 N 6.4 0.0
00:55 13.6 97.0 1012.9 0.0 N 6.4 0.0
01:00 13.5 97.0 1012.9 3.2 N 6.4 0.0
01:05 13.4 97.0 1012.8 3.2 N 6.4 0.0
01:10 13.3 97.0 1012.7 3.2 N 9.7 0.0
01:15 13.3 97.0 1012.8 1.6 N 11.3 0.0
01:20 13.3 97.0 1012.8 1.6 N 11.3 0.0
01:25 13.3 97.0 1012.8 0.0 N 4.8 0.0
01:30 13.3 97.0 1013.0 3.2 N 8.0 0.0
01:35 13.2 97.0 1013.0 1.6 N 8.0 0.0
01:40 13.2 97.0 1013.0 0.0 N 4.8 0.0
01:45 13.2 97.0 1013.0 3.2 N 4.8 0.0
01:50 13.2 97.0 1013.1 1.6 N 6.4 0.0
01:55 13.2 97.0 1013.1 1.6 N 4.8 0.0
02:00 13.1 97.0 1013.1 0.0 N 6.4 0.0
02:05 13.0 97.0 1013.0 3.2 N 8.0 0.0
02:10 12.9 97.0 1013.0 1.6 N 8.0 0.0
02:15 12.8 97.0 1013.0 3.2 N 6.4 0.0
02:20 12.8 97.0 1013.0 3.2 N 6.4 0.0
02:25 12.7 97.0 1013.1 3.2 N 4.8 0.0
02:30 12.6 97.0 1013.0 1.6 N 6.4 0.0
02:35 12.4 97.0 1013.0 3.2 N 4.8 0.0
02:40 12.4 97.0 1013.2 1.6 N 4.8 0.0
02:45 12.3 97.0 1013.1 6.4 N 6.4 0.0
02:50 12.2 97.0 1013.1 4.8 N 6.4 0.0
02:55 12.1 97.0 1013.0 3.2 N 6.4 0.0
03:00 11.8 96.0 1012.9 3.2 N 8.0 0.0
03:05 11.8 97.0 1013.1 3.2 N 4.8 0.0
03:10 11.6 96.0 1013.0 3.2 N 4.8 0.0
03:15 11.4 97.0 1012.9 1.6 N 4.8 0.0
03:20 11.3 97.0 1013.0 3.2 N 4.8 0.0
03:25 11.2 96.0 1013.0 1.6 N 6.4 0.0
03:30 11.1 97.0 1013.0 3.2 N 6.4 0.0
03:35 11.0 96.0 1012.8 4.8 N 8.0 0.0
03:40 10.8 96.0 1012.8 6.4 N 8.0 0.0
03:45 10.7 97.0 1012.8 4.8 N 8.0 0.0
03:50 10.6 96.0 1012.9 4.8 N 9.7 0.0
03:55 10.4 97.0 1013.2 6.4 N 9.7 0.0
04:00 10.3 97.0 1013.1 4.8 N 8.0 0.0
04:05 10.3 97.0 1013.2 8.0 N 8.0 0.0
04:10 10.3 96.0 1013.2 4.8 N 9.7 0.0
04:15 10.3 97.0 1013.4 6.4 N 8.0 0.2
04:20 10.1 97.0 1013.3 3.2 N 8.0 0.0
04:25 10.0 97.0 1013.4 3.2 N 6.4 0.0
04:30 10.0 97.0 1013.5 3.2 N 4.8 0.0
04:35 10.0 97.0 1013.4 3.2 N 4.8 0.0
04:40 10.0 97.0 1013.4 4.8 N 4.8 0.0
04:45 9.9 97.0 1013.4 3.2 N 6.4 0.0
04:50 10.0 97.0 1013.4 1.6 N 4.8 0.0
04:55 10.0 97.0 1013.5 3.2 N 4.8 0.0
05:00 10.0 97.0 1013.6 4.8 N 6.4 0.0
05:05 10.0 100.0 1013.5 3.2 N 6.4 0.0
05:10 9.9 97.0 1013.5 3.2 N 6.4 0.0
05:15 9.9 97.0 1013.6 3.2 N 6.4 0.0
05:20 9.9 96.0 1013.7 3.2 N 4.8 0.0
05:25 9.9 96.0 1013.7 3.2 N 4.8 0.0
05:30 9.9 96.0 1013.7 3.2 N 6.4 0.0
05:35 9.9 96.0 1013.7 4.8 N 6.4 0.0
05:40 9.8 96.0 1013.9 6.4 N 6.4 0.0
05:45 9.8 96.0 1014.1 3.2 N 8.0 0.0
05:50 9.8 96.0 1014.1 3.2 N 8.0 0.0
05:55 9.8 96.0 1014.1 3.2 N 6.4 0.0
06:00 9.8 96.0 1014.2 3.2 N 6.4 0.0
06:05 9.9 96.0 1014.4 4.8 N 6.4 0.0
06:10 9.9 96.0 1014.4 3.2 N 6.4 0.0
06:15 9.9 96.0 1014.5 3.2 N 4.8 0.0
06:20 10.0 96.0 1014.6 1.6 N 6.4 0.0
06:25 9.9 96.0 1014.7 4.8 N 6.4 0.0
06:30 9.9 96.0 1014.6 4.8 N 6.4 0.0
06:35 10.0 95.0 1014.7 3.2 N 6.4 0.0
06:40 10.1 95.0 1014.7 1.6 N 6.4 0.0
06:45 10.3 96.0 1014.8 1.6 N 3.2 0.0
06:50 10.6 96.0 1014.9 1.6 N 3.2 0.0
06:55 10.8 96.0 1014.9 1.6 N 3.2 0.0
07:00 11.0 96.0 1014.8 1.6 N 3.2 0.0
07:05 11.1 95.0 1014.8 0.0 N 1.6 0.0
07:10 11.2 95.0 1015.0 1.6 N 1.6 0.0
07:15 11.3 95.0 1015.1 0.0 N 1.6 0.0
07:20 11.4 94.0 1015.2 0.0 N 1.6 0.0
07:25 11.7 94.0 1015.3 0.0 N 1.6 0.0
07:30 11.8 93.0 1015.5 0.0 N 1.6 0.0
07:35 11.9 92.0 1015.3 1.6 N 1.6 0.0
07:40 12.1 92.0 1015.4 0.0 N 3.2 0.0
07:45 12.2 91.0 1015.4 3.2 N 3.2 0.0
07:50 12.1 89.0 1015.6 0.0 N 4.8 0.0
07:55 12.3 90.0 1015.4 0.0 N 4.8 0.0
08:00 12.3 89.0 1015.5 1.6 N 3.2 0.0
08:05 12.2 89.0 1015.5 1.6 N 3.2 0.0
08:10 12.1 89.0 1015.7 0.0 N 3.2 0.0
08:15 12.2 89.0 1015.7 1.6 N 3.2 0.0
08:20 12.3 88.0 1015.8 0.0 N 4.8 0.0
08:25 12.7 90.0 1016.0 1.6 N 3.2 0.0
08:30 12.8 87.0 1015.8 0.0 N 3.2 0.0
08:35 12.8 87.0 1015.9 1.6 N 1.6 0.0
08:40 12.9 84.0 1016.0 1.6 N 3.2 0.0
08:45 13.0 84.0 1016.0 0.0 N 3.2 0.0
08:50 13.3 84.0 1016.1 1.6 N 1.6 0.0
08:55 13.4 83.0 1016.0 3.2 N 4.8 0.0
09:00 13.8 87.0 1016.1 3.2 N 4.8 0.0
09:05 13.9 85.0 1016.4 3.2 N 4.8 0.0
09:10 13.9 80.0 1016.2 1.6 N 4.8 0.0
09:15 14.1 80.0 1016.4 1.6 N 8.0 0.0
09:20 14.1 82.0 1016.4 0.0 N 8.0 0.0
09:25 14.1 83.0 1016.4 0.0 N 1.6 0.0
09:30 14.0 83.0 1016.4 1.6 N 1.6 0.0
09:35 14.1 84.0 1016.6 0.0 N 4.8 0.0
09:40 14.4 85.0 1016.7 1.6 N 4.8 0.0
09:45 14.4 81.0 1016.6 3.2 N 4.8 0.0
09:50 14.6 81.0 1016.6 0.0 N 6.4 0.0
09:55 14.5 75.0 1016.5 1.6 N 6.4 0.0
10:00 14.9 76.0 1016.5 1.6 N 4.8 0.0
10:05 15.3 76.0 1016.5 0.0 N 3.2 0.0
10:10 15.7 77.0 1016.5 0.0 N 4.8 0.0
10:15 15.8 78.0 1016.4 3.2 N 4.8 0.0
10:20 15.8 80.0 1016.6 3.2 N 6.4 0.0
10:25 15.8 79.0 1016.3 1.6 N 6.4 0.0
10:30 15.8 77.0 1016.4 1.6 N 6.4 0.0
10:35 16.1 79.0 1016.4 3.2 N 4.8 0.0
10:40 16.3 75.0 1016.4 1.6 N 4.8 0.0
10:45 16.2 70.0 1016.4 4.8 N 8.0 0.0
10:50 16.3 75.0 1016.4 1.6 N 8.0 0.0
10:55 16.4 71.0 1016.3 1.6 N 4.8 0.0
11:00 16.7 75.0 1016.4 1.6 N 8.0 0.0
11:05 16.7 73.0 1016.3 3.2 N 8.0 0.0
11:10 16.8 72.0 1016.3 3.2 N 8.0 0.0
11:15 16.8 74.0 1016.3 8.0 N 8.0 0.0
11:20 16.7 74.0 1016.3 4.8 N 8.0 0.0
11:25 16.8 74.0 1016.3 1.6 N 6.4 0.0
11:30 17.1 74.0 1016.4 3.2 N 4.8 0.0
11:35 17.3 74.0 1016.4 1.6 N 4.8 0.0
11:40 17.8 76.0 1016.4 4.8 N 6.4 0.0
11:45 17.8 73.0 1016.5 3.2 N 8.0 0.0
11:50 17.8 73.0 1016.5 3.2 N 8.0 0.0
11:55 18.1 71.0 1016.5 0.0 N 6.4 0.0
12:00 18.2 70.0 1016.4 3.2 N 6.4 0.0
12:05 18.1 71.0 1016.4 6.4 N 11.3 0.0
12:10 17.8 70.0 1016.1 9.7 N 16.1 0.0
12:15 17.3 74.0 1016.4 4.8 N 16.1 0.0
12:20 17.4 77.0 1016.2 1.6 N 16.1 0.0
12:25 17.9 73.0 1016.2 0.0 N 6.4 0.0
12:30 18.2 69.0 1016.1 3.2 N 6.4 0.0
12:35 18.3 70.0 1016.1 3.2 N 6.4 0.0
12:40 18.2 72.0 1016.2 1.6 N 6.4 0.0
12:45 18.3 71.0 1016.1 3.2 N 6.4 0.0
12:50 18.3 70.0 1016.1 1.6 N 8.0 0.0
12:55 18.7 69.0 1016.2 4.8 N 8.0 0.0
13:00 18.9 68.0 1016.1 1.6 N 9.7 0.0
13:05 18.9 69.0 1015.9 3.2 N 8.0 0.0
13:10 18.9 70.0 1016.0 1.6 N 8.0 0.0
13:15 19.3 68.0 1016.0 3.2 N 8.0 0.0
13:20 19.4 66.0 1016.0 4.8 N 8.0 0.0
13:25 19.4 67.0 1015.9 1.6 N 4.8 0.0
13:30 19.4 66.0 1015.8 3.2 N 6.4 0.0
13:35 19.2 66.0 1015.8 3.2 N 6.4 0.0
13:40 19.0 66.0 1016.0 0.0 N 6.4 0.0
13:45 19.0 66.0 1016.0 4.8 N 6.4 0.0
13:50 19.1 65.0 1016.0 0.0 N 6.4 0.0
13:55 19.2 63.0 1016.0 3.2 N 4.8 0.0
14:00 18.9 64.0 1015.9 3.2 N 4.8 0.0
14:05 19.1 64.0 1016.0 11.3 N 11.3 0.0
14:10 18.9 66.0 1015.8 3.2 N 11.3 0.0
14:15 18.7 66.0 1015.8 3.2 N 9.7 0.0
14:20 18.8 65.0 1015.8 6.4 N 6.4 0.0
14:25 18.5 66.0 1015.8 1.6 N 9.7 0.0
14:30 18.6 66.0 1015.9 4.8 N 9.7 0.0
Màxima 19.5 100.0 1016.7 11.3 N 16.1 0.2
Mínima 9.8 63.0 1012.6
Total 0.2